EW2591 Weather Reports


time (UTC)temp
C
wind
direction
speed
KPH
gust
KPH
rain 1hr
cm
rain 24hr
cm
rain mn
cm
humidity
%
barometer
mb
20260504100318 8 236 8.0 17.7 0.00 0.00 0.00 57
20260504081830 10 198 12.9 24.1 0.00 0.00 0.00 53
20260504081328 10 256 12.9 24.1 0.00 0.00 0.00 53
20260504080828 10 205 11.3 20.9 0.00 0.00 0.00 53
20260504080331 9 272 14.5 27.4 0.00 0.00 0.00 53
20260504070327 9 213 8.0 17.7 0.00 0.00 0.00 57
20260504050319 8 270 0.0 0.0 0.00 0.00 0.00 66
20260504045819 8 270 0.0 0.0 0.00 0.00 0.00 65
20260504045319 8 270 0.0 0.0 0.00 0.00 0.00 64
20260504044818 8 270 0.0 0.0 0.00 0.00 0.00 65
20260504044318 8 270 0.0 0.0 0.00 0.00 0.00 63
20260504043840 8 270 0.0 0.0 0.00 0.00 0.00 63
20260504043342 8 270 0.0 0.0 0.00 0.00 0.00 62
20260504042841 9 270 0.0 0.0 0.00 0.00 0.00 62
20260504042317 9 270 0.0 0.0 0.00 0.00 0.00 61
20260504041817 9 270 0.0 12.9 0.00 0.00 0.00 60
20260504041338 9 270 3.2 12.9 0.00 0.00 0.00 60
20260504040816 9 247 1.6 8.0 0.00 0.00 0.00 61
20260504040317 8 253 3.2 12.9 0.00 0.00 0.00 62
20260504035836 8 237 4.8 12.9 0.00 0.00 0.00 63
20260504035315 8 60 1.6 6.4 0.00 0.00 0.00 65
20260504034814 8 295 0.0 4.8 0.00 0.00 0.00 66
20260504034314 7 297 0.0 6.4 0.00 0.00 0.00 66
20260504033814 7 288 0.0 4.8 0.00 0.00 0.00 67
20260504033315 7 282 0.0 6.4 0.00 0.00 0.00 68
20260504032835 7 282 0.0 11.3 0.00 0.00 0.00 70
20260504032354 6 279 4.8 11.3 0.00 0.00 0.00 74
20260504031854 5 317 0.0 4.8 0.00 0.00 0.00 76
20260504031314 5 316 0.0 4.8 0.00 0.00 0.00 77
20260504030814 5 316 0.0 6.4 0.00 0.00 0.00 77
20260504030316 5 316 1.6 6.4 0.00 0.00 0.00 77
20260504025816 5 335 0.0 8.0 0.00 0.00 0.00 77
20260504025318 5 335 0.0 11.3 0.00 0.00 0.00 77
20260504024837 4 333 1.6 11.3 0.00 0.00 0.00 79
20260504024315 4 10 0.0 6.4 0.00 0.00 0.00 79
20260504023815 4 336 0.0 6.4 0.00 0.00 0.00 80
20260504023335 3 336 0.0 0.0 0.00 0.00 0.00 79
20260504022833 3 335 0.0 0.0 0.00 0.00 0.00 79
20260504022350 3 336 0.0 0.0 0.00 0.00 0.00 78
20260504021849 3 335 0.0 0.0 0.00 0.00 0.00 78
20260504021328 4 336 0.0 0.0 0.00 0.00 0.00 77
20260504020829 4 336 0.0 0.0 0.00 0.00 0.00 77
20260504020350 4 336 0.0 0.0 0.00 0.00 0.00 76
20260504015828 4 336 0.0 0.0 0.00 0.00 0.00 76
20260504015328 4 336 0.0 0.0 0.00 0.00 0.00 75
20260504014828 5 336 0.0 0.0 0.00 0.00 0.00 75
20260504014328 5 336 0.0 0.0 0.00 0.00 0.00 74
20260504013830 5 336 0.0 0.0 0.00 0.00 0.00 73
20260504013330 5 336 0.0 0.0 0.00 0.00 0.00 73
20260504012830 5 335 0.0 0.0 0.00 0.00 0.00 73
20260504012350 5 335 0.0 0.0 0.00 0.00 0.00 72
20260504011829 5 335 0.0 0.0 0.00 0.00 0.00 71
20260504011329 5 335 0.0 0.0 0.00 0.00 0.00 71
20260504010829 5 335 0.0 0.0 0.00 0.00 0.00 71
20260504010331 5 335 0.0 0.0 0.00 0.00 0.00 70
20260504005850 6 335 0.0 0.0 0.00 0.00 0.00 69
20260504005329 6 335 0.0 0.0 0.00 0.00 0.00 69
20260504004829 6 335 0.0 0.0 0.00 0.00 0.00 68
20260504004349 6 335 0.0 0.0 0.00 0.00 0.00 67
20260504003829 6 335 0.0 0.0 0.00 0.00 0.00 66
20260504003330 7 335 0.0 0.0 0.00 0.00 0.00 65
20260504002829 7 335 0.0 0.0 0.00 0.00 0.00 63
20260504002350 7 335 0.0 0.0 0.00 0.00 0.00 61
20260504001851 8 335 0.0 0.0 0.00 0.00 0.00 59
20260504001351 8 335 0.0 0.0 0.00 0.00 0.00 58
20260504000829 8 335 0.0 0.0 0.00 0.00 0.00 57
20260504000349 9 335 0.0 6.4 0.00 0.00 0.00 55
20260503235829 9 335 0.0 6.4 0.00 0.00 0.00 53
20260503235327 9 354 0.0 3.2 0.00 0.00 0.00 53
20260503234828 10 354 0.0 9.7 0.00 0.00 0.00 53
20260503234349 10 8 3.2 9.7 0.00 0.00 0.00 52
20260503233829 10 301 1.6 9.7 0.00 0.00 0.00 52
20260503233326 10 265 4.8 11.3 0.00 0.00 0.00 52
20260503232846 10 286 1.6 16.1 0.00 0.00 0.00 52
20260503232326 10 274 8.0 19.3 0.00 0.00 0.00 52
20260503231826 10 253 4.8 20.9 0.00 0.00 0.00 52
20260503231325 10 212 8.0 24.1 0.00 0.00 0.00 52
20260503230827 10 289 11.3 24.1 0.00 0.00 0.00 51
20260503230327 10 280 6.4 17.7 0.00 0.00 0.00 50
20260503225822 10 298 8.0 22.5 0.00 0.00 0.00 49
20260503225322 10 270 11.3 22.5 0.00 0.00 0.00 48
20260503224823 10 301 3.2 12.9 0.00 0.00 0.00 48
20260503224340 10 290 4.8 12.9 0.00 0.00 0.00 48
20260503223824 10 228 3.2 11.3 0.00 0.00 0.00 47
20260503223325 10 274 4.8 16.1 0.00 0.00 0.00 47
20260503222824 10 354 6.4 16.1 0.00 0.00 0.00 46
20260503222324 10 250 3.2 17.7 0.00 0.00 0.00 46
20260503221843 10 264 6.4 17.7 0.00 0.00 0.00 46
20260503221322 10 217 3.2 14.5 0.00 0.00 0.00 46
20260503220823 10 278 4.8 25.7 0.00 0.00 0.00 45
20260503220323 10 245 9.7 25.7 0.00 0.00 0.00 44
20260503215822 10 266 8.0 19.3 0.00 0.00 0.00 44
20260503215322 10 253 8.0 19.3 0.00 0.00 0.00 43
20260503214823 10 317 8.0 19.3 0.00 0.00 0.00 41
20260503214323 10 268 3.2 11.3 0.00 0.00 0.00 41
20260503213823 10 279 3.2 17.7 0.00 0.00 0.00 41
20260503213346 10 295 6.4 25.7 0.00 0.00 0.00 40
20260503212824 10 263 9.7 25.7 0.00 0.00 0.00 40
20260503212324 11 258 12.9 22.5 0.00 0.00 0.00 39
20260503211825 11 316 8.0 19.3 0.00 0.00 0.00 39
20260503211325 11 359 4.8 19.3 0.00 0.00 0.00 37
20260503210825 11 305 3.2 17.7 0.00 0.00 0.00 37
20260503210326 11 297 6.4 17.7 0.00 0.00 0.00 37
20260503205825 11 258 9.7 32.2 0.00 0.00 0.00 36
20260503205324 11 345 11.3 32.2 0.00 0.00 0.00 35
20260503204824 11 4 8.0 22.5 0.00 0.00 0.00 35
20260503204323 11 202 9.7 17.7 0.00 0.00 0.00 34
20260503203823 11 4 1.6 27.4 0.00 0.00 0.00 36
20260503203342 11 273 14.5 32.2 0.00 0.00 0.00 34
20260503202820 11 247 8.0 19.3 0.00 0.00 0.00 33
20260503202321 11 318 4.8 20.9 0.00 0.00 0.00 34
20260503201821 11 311 8.0 24.1 0.00 0.00 0.00 33
20260503201342 11 16 8.0 24.1 0.00 0.00 0.00 34
20260503200821 11 260 8.0 20.9 0.00 0.00 0.00 34
20260503200323 11 283 12.9 20.9 0.00 0.00 0.00 34
20260503195821 10 252 3.2 14.5 0.00 0.00 0.00 36
20260503195341 10 241 8.0 16.1 0.00 0.00 0.00 36
20260503194821 10 287 6.4 32.2 0.00 0.00 0.00 35
20260503194322 10 252 11.3 32.2 0.00 0.00 0.00 34
20260503193821 10 16 1.6 17.7 0.00 0.00 0.00 36
20260503193322 10 41 8.0 17.7 0.00 0.00 0.00 37
20260503192821 10 247 4.8 19.3 0.00 0.00 0.00 37
20260503192319 10 310 9.7 29.0 0.00 0.00 0.00 37
20260503191819 10 297 6.4 29.0 0.00 0.00 0.00 37
20260503191318 10 233 8.0 25.7 0.00 0.00 0.00 37
20260503190838 10 259 8.0 33.8 0.00 0.00 0.00 37
20260503190322 10 242 16.1 33.8 0.00 0.00 0.00 36
20260503185816 10 236 8.0 27.4 0.00 0.00 0.00 38
20260503185316 10 239 8.0 20.9 0.00 0.00 0.00 38
20260503184835 10 285 6.4 19.3 0.00 0.00 0.00 37
20260503184318 10 322 9.7 22.5 0.00 0.00 0.00 37
20260503183819 10 252 6.4 22.5 0.00 0.00 0.00 37
20260503183321 10 267 6.4 32.2 0.00 0.00 0.00 37
20260503182820 10 243 9.7 32.2 0.00 0.00 0.00 38
20260503182318 10 81 3.2 12.9 0.00 0.00 0.00 41
20260503181818 9 12 3.2 16.1 0.00 0.00 0.00 40
20260503181316 8 293 4.8 27.4 0.00 0.00 0.00 42
20260503180816 8 4 12.9 20.9 0.00 0.00 0.00 42
20260503180318 8 322 4.8 16.1 0.00 0.00 0.00 41
20260503175817 8 335 6.4 20.9 0.00 0.00 0.00 41
20260503175317 8 243 8.0 17.7 0.00 0.00 0.00 40
20260503174818 8 246 4.8 19.3 0.00 0.00 0.00 41
20260503174338 8 305 9.7 19.3 0.00 0.00 0.00 40
20260503173817 8 311 4.8 17.7 0.00 0.00 0.00 41
20260503173318 8 302 3.2 20.9 0.00 0.00 0.00 43
20260503172817 7 262 4.8 17.7 0.00 0.00 0.00 44
20260503172336 7 281 6.4 25.7 0.00 0.00 0.00 44
20260503171814 7 316 8.0 25.7 0.00 0.00 0.00 44
20260503171335 7 302 9.7 22.5 0.00 0.00 0.00 43
20260503170814 7 305 8.0 14.5 0.00 0.00 0.00 43
20260503170315 7 205 1.6 19.3 0.00 0.00 0.00 45
20260503150828 6 212 1.6 9.7 0.00 0.00 0.00 54
20260503150329 5 224 0.0 12.9 0.00 0.00 0.00 54
20260503131322 5 4 1.6 14.5 0.00 0.00 0.00 60
20260503130821 5 330 1.6 17.7 0.00 0.00 0.00 61
20260503130322 5 324 6.4 17.7 0.00 0.00 0.00 61
20260503110828 1 320 0.0 0.0 0.00 0.00 0.00 86
20260503110327 1 320 0.0 0.0 0.00 0.00 0.00 86